{"data":{"norad_id":59250,"intl_designator":"2024-049V","name":"STARLINK-31407","alt_names":[],"object_type":"PAYLOAD","status":"ACTIVE","operator":null,"country":"US","launch_date":"2024-03-16","launch_site_code":"AFETR","launch_vehicle":null,"mission":null,"orbit_class":"UNKNOWN","rcs_meters":null,"size_class":null,"mass_kg":null,"dimensions":null,"purposes":["comms"],"wikipedia_slug":null,"has_3d_model":false,"image_url":null,"decayed_at":null,"tle_current":{"epoch":"2026-05-25T01:06:53.246304Z","epoch_age_seconds":67241,"freshness":"FRESH","line1":"1 59250U 24049V   26145.04644961  .00000273  00000+0  19453-4 0  9999","line2":"2 59250  43.0015  61.0815 0001192 267.5824  92.4892 15.27575774124207","mean_motion":15.27575774,"eccentricity":0.0001192,"inclination_deg":43.0015,"raan_deg":61.0815,"arg_perigee_deg":267.5824,"mean_anomaly_deg":92.4892,"bstar":1.9453e-5,"rev_number":12420,"period_min":94.267009500244,"perigee_km":482.24389534209,"apogee_km":483.87960512415,"semimajor_km":6861.1987502331,"source":"CELESTRAK","updated_at":"2026-05-25T13:38:18.873252Z"}}}